Flag for Canada Weather past 2 weeks in Saanich, British Columbia, Canada

Now
45 °F

Partly sunny.


Feels Like: 42 °F
Forecast: 41 / 47 °F
Wind: 5 mph from Southwest

Location: Victoria Int. Airportb. C.

Current Time: Jan 31, 2015 at 12:22:09 PM

Latest Report: Jan 31, 2015 at 12:00 PM


Visibility: 10 mi

Pressure: 30.24 "Hg

Humidity: 93%

Dew point: 43 °F

Location of SaanichLocation

Historic Weather in Saanich — Graph

°F

Saanich temperature yesterday

Maximum temperature yesterday: 48 °F (at 1:00 PM)
Minimum temperature yesterday: 34 °F (at 6:00 AM)
Average temperature yesterday: 40 °F

Past Weeks' High & Low Weather Summary

 TemperatureHumidityPressure
High59 °F (Jan 24, 4:00 PM)100% (Jan 17, 2:00 AM)30.47 "Hg (Jan 17, 2:00 AM)
Low32 °F (Jan 21, 4:00 AM)58% (Jan 16, 12:00 PM)29.47 "Hg (Jan 18, 1:00 AM)
Average44 °F93%30.20 "Hg
* Reported Jan 16 11:00 AM — Jan 31 11:00 AM, Saanich, Weather by CustomWeather, © 2014

Note: Actual official high and low records may vary slightly from our data, if they occured in-between our weather recording intervals... More about our weather records

Advertising

Saanich weather history for previous 24 hours

 ConditionsComfort  
Time TempWeatherWind HumidityBarometerVisibility
11:00 AM
Jan 31
41 °FFog.6 mph100%30.26 "Hg2 mi
10:55 AM41 °FFog.5 mph100%30.26 "Hg1 mi
10:00 AM41 °FFog.7 mph100%30.27 "Hg1 mi
9:00 AM39 °FFog.6 mph100%30.27 "Hg1 mi
8:45 AM39 °FFog.6 mph100%30.27 "Hg1 mi
8:00 AM39 °FFog.8 mph100%30.27 "Hg1 mi
7:00 AM39 °FFog.6 mph100%30.27 "Hg2 mi
6:45 AM39 °FFog.7 mph100%30.27 "Hg1 mi
6:00 AM39 °FFog.3 mph100%30.26 "Hg1 mi
5:00 AM37 °FFog.5 mph100%30.28 "Hg1 mi
4:00 AM39 °FFog.5 mph100%30.28 "Hg1 mi
3:00 AM39 °FFog.3 mph100%30.28 "Hg0 mi
2:00 AM39 °FFog.6 mph100%30.28 "Hg0 mi
1:00 AM39 °FFog.2 mph100%30.29 "Hg0 mi
12:00 AM39 °FFog.2 mph100%30.28 "Hg0 mi
11:00 PM
Jan 30
39 °FFog.2 mph100%30.27 "Hg0 mi
10:45 PM37 °FFog.No wind100%30.27 "Hg1 mi
10:00 PM34 °FPassing clouds.3 mph100%30.27 "Hg10 mi
9:00 PM37 °FPassing clouds.No wind93%30.27 "Hg30 mi
8:00 PM37 °FPassing clouds.2 mph100%30.27 "Hg30 mi
7:00 PM39 °FPassing clouds.2 mph87%30.27 "Hg30 mi
6:00 PM41 °FPassing clouds.2 mph93%30.27 "Hg30 mi
5:00 PM46 °FPartly sunny.2 mph82%30.27 "Hg30 mi
4:00 PM48 °FPartly sunny.3 mph76%30.27 "Hg30 mi
3:00 PM48 °FPartly sunny.2 mph76%30.28 "Hg30 mi
2:00 PM48 °FPartly sunny.5 mph66%30.28 "Hg30 mi
1:00 PM48 °FScattered clouds.5 mph71%30.28 "Hg30 mi
12:00 PM46 °FPassing clouds.2 mph82%30.31 "Hg30 mi
Weather by CustomWeather, © 2014

See weather overviewHow to use our weather pages